Location: Aulus
(42.7909°N, 1.3399°E)
Time: 12:39:11
(UTC+00:00)

deb Kosmos- 1980 - Pass Details

Date: 14 October 2025
Orbit: 834 x 854 km, 71.0° (Epoch: 16 November)

Event Time Altitude Azimuth Distance (km) Brightness Sun altitude
Rises 18:39:21 0° 349° (N) 3,405 ? -16.5°
Reaches altitude 10° 18:44:29 10° 29° (NNE) 2,460 ? -17.4°
Maximum altitude 18:45:29 10° 39° (NE) 2,426 ? -17.6°
Enters shadow 18:45:31 10° 40° (NE) 2,426 ? -17.6°
